[[{"header":{"parameterUnit":"m.s-1","parameterCategory":1,"la1":30.2992,"la2":30.254,"lo1":-89.0895,"lo2":-89.0443,"dy":0.0025,"dx":0.0025,"nx":19,"ny":19,"refTime":"2026-05-02T03:00:00:Z","depth":0,"parameterNumber":2,"parameterNumberName":"U-component_of_WINDS"},"data":[0,0,0,1.8163,1.8165,1.8296,1.8297,1.8453,1.8454,0,0,0,0,0,0,0,0,0,0,0,1.8114,1.8115,1.8163,1.8166,1.8296,1.8297,1.8453,1.8454,0,0,0,0,0,0,0,0,0,0,0,1.8114,1.8115,1.8115,1.8166,1.8296,1.8297,1.8453,1.8359,0,0,0,0,0,0,0,0,0,0,1.8234,1.8178,1.8114,1.8115,1.8167,1.8296,1.8297,1.8354,1.8364,1.8388,0,1.8403,0,1.8431,1.8464,1.8464,0,0,0,1.8174,1.8169,1.8214,1.8116,1.8168,1.8296,1.824,1.836,1.8372,1.8401,1.8406,1.8412,1.8434,1.8465,1.8465,1.8567,1.8567,0,0,1.8167,1.8133,1.8206,1.822,1.8196,1.8236,1.8244,1.8367,1.8371,1.8406,1.8416,1.8436,1.8466,1.8467,1.8567,1.8567,0,0,0,1.814,1.8127,1.8169,1.8214,1.8238,1.8239,1.8249,1.8366,1.8382,1.8418,1.8438,1.8466,1.8468,1.8567,1.8567,1.8537,0,0,0,1.8136,1.8112,1.8165,1.8146,1.8235,1.8303,1.8244,1.8373,1.8388,1.8437,1.8467,1.847,1.8567,1.8567,1.8538,1.8529,0,0,0,1.8109,1.8109,1.8124,1.8144,1.8199,1.8302,1.8325,1.8377,1.84,1.8464,1.847,1.8567,1.8567,1.8539,1.853,1.8546,0,0,0,1.8071,1.8097,1.8123,1.8161,1.8197,1.8281,1.8325,1.839,1.8441,1.8467,1.8567,1.8567,1.8539,1.8531,1.8546,1.8553,1.8552,0,0,1.8085,1.8098,1.8123,1.815,1.822,1.8264,1.8332,1.8412,1.8451,1.8527,1.853,1.8538,1.853,1.8546,1.8561,1.856,0,0,0,1.8116,1.8133,1.816,1.8205,1.8266,1.8318,1.8391,1.8422,1.8488,1.8482,1.8549,1.8546,1.8556,1.8561,1.856,1.8572,1.8568,1.8567,1.8567,1.8088,1.8134,1.8179,1.8241,1.8286,1.8361,1.8402,1.8457,1.8491,1.8507,1.8529,1.8532,1.8536,1.8536,1.8548,1.8537,1.8537,1.8536,1.8536,1.8114,1.8146,1.8191,1.825,1.83,1.8352,1.8427,1.845,1.8507,1.8519,1.853,1.8539,1.8533,1.8546,1.8535,1.8535,1.8535,1.8535,1.8536,1.81,1.8124,1.8159,1.8231,1.8282,1.8346,1.8398,1.8442,1.8485,1.8496,1.8526,1.8526,1.8533,1.8507,1.8507,1.8507,1.8507,1.8507,1.8507,1.8072,1.8113,1.815,1.8217,1.8253,1.8306,1.8383,1.8421,1.8475,1.8503,1.8504,1.8537,1.8524,1.8519,1.8507,1.8507,1.8507,1.8507,1.8507,1.8081,1.8086,1.8143,1.8179,1.8262,1.8311,1.8367,1.844,1.8478,1.8503,1.8535,1.8517,1.8534,1.8535,1.8531,1.8524,1.8524,1.8524,1.8524,1.8069,1.8082,1.8151,1.8205,1.8264,1.8321,1.8387,1.8448,1.8513,1.854,1.8548,1.8547,1.8546,1.8564,1.8564,1.8562,1.8562,1.8562,1.8562,1.8078,1.8098,1.8144,1.8204,1.8273,1.8332,1.8396,1.846,1.8535,1.8564,1.8562,1.856,1.856,1.8558,1.8586,1.8586,1.8582,0,0]},{"header":{"parameterUnit":"m.s-1","parameterCategory":1,"la1":30.2992,"la2":30.254,"lo1":-89.0895,"lo2":-89.0443,"dy":0.0025,"dx":0.0025,"nx":19,"ny":19,"refTime":"2026-05-02T03:00:00:Z","depth":0,"parameterNumber":3,"parameterNumberName":"V-component_of_WINDS"},"data":[0,0,0,0.181,0.1814,0.1958,0.1959,0.2149,0.2151,0,0,0,0,0,0,0,0,0,0,0,0.1773,0.1775,0.181,0.1814,0.1958,0.1959,0.2149,0.2151,0,0,0,0,0,0,0,0,0,0,0,0.1772,0.1774,0.1776,0.1815,0.1958,0.1959,0.2149,0.2037,0,0,0,0,0,0,0,0,0,0,0.1896,0.1867,0.1774,0.1776,0.1815,0.1958,0.1959,0.2032,0.2044,0.2087,0,0.2128,0,0.2142,0.2164,0.2165,0,0,0,0.181,0.1857,0.1891,0.1776,0.1817,0.1958,0.1892,0.2039,0.2053,0.2103,0.213,0.2137,0.2146,0.2166,0.2167,0.2428,0.2429,0,0,0.1802,0.1802,0.1881,0.19,0.188,0.1887,0.1896,0.2047,0.2076,0.2131,0.2142,0.2149,0.2167,0.2168,0.2426,0.2428,0,0,0,0.1782,0.1797,0.1827,0.1893,0.1918,0.1892,0.1902,0.2069,0.2079,0.2144,0.2151,0.2168,0.217,0.2425,0.2427,0.2496,0,0,0,0.1777,0.1785,0.1823,0.1825,0.1915,0.1996,0.1921,0.2069,0.2086,0.215,0.2168,0.2172,0.2423,0.2426,0.2491,0.2529,0,0,0,0.1762,0.1783,0.1806,0.1825,0.1887,0.1994,0.2012,0.2072,0.2091,0.2165,0.2173,0.2422,0.2425,0.2486,0.2522,0.2596,0,0,0,0.1746,0.1867,0.1807,0.1944,0.1886,0.2035,0.2011,0.2123,0.2195,0.2169,0.2423,0.2427,0.2485,0.2517,0.2592,0.266,0.2688,0,0,0.1898,0.1885,0.1966,0.1916,0.2077,0.2013,0.2184,0.225,0.2257,0.237,0.2376,0.2493,0.2521,0.2595,0.2848,0.2871,0,0,0,0.2014,0.2072,0.2114,0.2183,0.2236,0.2283,0.2323,0.2347,0.2443,0.2316,0.254,0.2557,0.2601,0.2633,0.2652,0.2689,0.2442,0.2441,0.2441,0.2231,0.2232,0.2365,0.2382,0.2449,0.2487,0.254,0.2578,0.2562,0.2614,0.2648,0.2801,0.2839,0.2854,0.2892,0.2684,0.2684,0.2684,0.2685,0.2454,0.2536,0.2507,0.2625,0.2625,0.2723,0.2763,0.2747,0.2838,0.2777,0.2815,0.2748,0.2878,0.2911,0.269,0.2689,0.2688,0.2688,0.2687,0.2596,0.2635,0.2661,0.2758,0.2831,0.2844,0.2931,0.2928,0.2925,0.2963,0.2997,0.2996,0.2993,0.2979,0.298,0.298,0.2981,0.2981,0.2982,0.2734,0.2761,0.2836,0.2899,0.294,0.2994,0.303,0.3071,0.3114,0.3104,0.3104,0.308,0.2891,0.2843,0.299,0.2988,0.2987,0.2987,0.2986,0.296,0.2907,0.3023,0.3064,0.3136,0.3207,0.32,0.3281,0.3314,0.3356,0.3323,0.3184,0.317,0.3155,0.3115,0.3324,0.3324,0.3324,0.3324,0.308,0.3071,0.3187,0.3252,0.3316,0.332,0.3447,0.3474,0.3495,0.3514,0.3483,0.343,0.3414,0.341,0.3389,0.3352,0.3616,0.3616,0.3616,0.3218,0.3215,0.3325,0.3344,0.3399,0.3445,0.3563,0.3638,0.365,0.3628,0.3529,0.3516,0.343,0.3403,0.338,0.3348,0.328,0,0]}]]